START_TIME,STEP,MOV.,P11,t_acc.,P23,t_acc.,P27,t_acc.,A4,t_acc.
1981-08-28 00:00:23.850 ,6,0,1.,4.8,0.,4.8,0.,4.8,0.,4.8
1981-08-28 00:00:28.650 ,6,0,0.,4.8,0.,4.8,1.,4.8,0.,4.8
1981-08-28 00:00:33.450 ,6,0,1.,4.8,0.,4.8,0.,4.8,0.,4.8
1981-08-28 00:00:38.250 ,6,0,0.,4.8,0.,4.8,0.,4.8,0.,4.8
1981-08-28 00:00:43.050 ,6,0,0.,4.8,0.,4.8,0.,4.8,0.,4.8
1981-08-28 00:00:47.850 ,7,0,2.,4.8,0.,4.8,0.,4.8,0.,4.8
1981-08-28 00:00:52.650 ,7,0,1.,4.8,0.,4.8,0.,4.8,0.,4.8
1981-08-28 00:00:57.450 ,7,0,0.,4.8,0.,4.8,0.,4.8,0.,4.8
1981-08-28 00:01:02.250 ,7,0,0.,4.8,0.,4.8,0.,4.8,0.,4.8
1981-08-28 00:01:07.050 ,7,0,0.,4.8,0.,4.8,1.,4.8,0.,4.8
1981-08-28 00:01:11.850 ,7,0,0.,4.8,0.,4.8,0.,4.8,0.,4.8
1981-08-28 00:01:16.650 ,7,0,0.,4.8,0.,4.8,0.,4.8,0.,4.8
1981-08-28 00:01:21.450 ,7,0,1.,4.8,0.,4.8,0.,4.8,0.,4.8
1981-08-28 00:01:26.250 ,7,0,0.,4.8,0.,4.8,0.,4.8,0.,4.8
1981-08-28 00:01:31.050 ,7,0,3.,4.8,0.,4.8,0.,4.8,0.,4.8
1981-08-28 00:01:35.850 ,7,0,0.,4.8,0.,4.8,0.,4.8,0.,4.8
1981-08-28 00:01:40.650 ,7,0,0.,4.8,0.,4.8,0.,4.8,0.,4.8
1981-08-28 00:01:45.450 ,7,0,1.,4.8,0.,4.8,0.,4.8,0.,4.8
1981-08-28 00:01:50.250 ,7,0,2.,4.8,0.,4.8,0.,4.8,0.,4.8
1981-08-28 00:01:55.050 ,7,0,0.,4.8,0.,4.8,0.,4.8,0.,4.8
1981-08-28 00:01:59.850 ,6,0,0.,4.8,0.,4.8,0.,4.8,0.,4.8
1981-08-28 00:02:04.650 ,6,0,1.,4.8,0.,4.8,0.,4.8,0.,4.8
1981-08-28 00:02:09.450 ,6,0,0.,4.8,0.,4.8,0.,4.8,0.,4.8
1981-08-28 00:02:14.250 ,6,0,1.,4.8,0.,4.8,0.,4.8,0.,4.8
1981-08-28 00:02:19.050 ,6,0,0.,4.8,0.,4.8,0.,4.8,0.,4.8
1981-08-28 00:02:23.850 ,5,0,0.,4.8,0.,4.8,0.,4.8,0.,4.8
1981-08-28 00:02:28.650 ,5,0,1.,4.8,0.,4.8,0.,4.8,0.,4.8
1981-08-28 00:02:33.450 ,5,0,1.,4.8,0.,4.8,0.,4.8,0.,4.8
1981-08-28 00:02:38.250 ,5,0,0.,4.8,0.,4.8,0.,4.8,0.,4.8
1981-08-28 00:02:43.050 ,5,0,0.,4.8,0.,4.8,0.,4.8,0.,4.8
1981-08-28 00:02:47.850 ,4,0,0.,4.8,0.,4.8,0.,4.8,0.,4.8
1981-08-28 00:02:52.650 ,4,0,0.,4.8,0.,4.8,0.,4.8,0.,4.8
1981-08-28 00:02:57.450 ,4,0,1.,4.8,0.,4.8,0.,4.8,0.,4.8
1981-08-28 00:03:02.250 ,4,0,0.,4.8,0.,4.8,0.,4.8,0.,4.8
1981-08-28 00:03:07.050 ,4,0,1.,4.8,0.,4.8,0.,4.8,0.,4.8
1981-08-28 00:03:11.850 ,3,0,1.,4.8,0.,4.8,0.,4.8,0.,4.8
1981-08-28 00:03:16.650 ,3,0,1.,4.8,0.,4.8,0.,4.8,0.,4.8
1981-08-28 00:03:21.450 ,3,0,1.,4.8,0.,4.8,0.,4.8,0.,4.8
1981-08-28 00:03:26.250 ,3,0,0.,4.8,0.,4.8,0.,4.8,0.,4.8
1981-08-28 00:03:31.050 ,3,0,0.,4.8,0.,4.8,0.,4.8,0.,4.8
1981-08-28 00:03:35.850 ,2,0,0.,4.8,0.,4.8,0.,4.8,0.,4.8
1981-08-28 00:03:40.650 ,2,0,1.,4.8,0.,4.8,0.,4.8,0.,4.8
1981-08-28 00:03:45.450 ,2,0,1.,4.8,1.,4.8,0.,4.8,0.,4.8
1981-08-28 00:03:50.250 ,2,0,0.,4.8,0.,4.8,0.,4.8,0.,4.8
1981-08-28 00:03:55.050 ,2,0,0.,4.8,0.,4.8,0.,4.8,0.,4.8
1981-08-28 00:03:59.850 ,1,0,1.,4.8,0.,4.8,0.,4.8,0.,4.8
1981-08-28 00:04:04.650 ,1,0,0.,4.8,0.,4.8,0.,4.8,0.,4.8
1981-08-28 00:04:09.450 ,1,0,0.,4.8,0.,4.8,0.,4.8,0.,4.8
1981-08-28 00:04:14.250 ,1,0,1.,4.8,0.,4.8,0.,4.8,0.,4.8
1981-08-28 00:04:19.050 ,1,0,0.,4.8,0.,4.8,1.,4.8,0.,4.8
1981-08-28 00:04:23.850 ,0,0,0.,4.8,0.,4.8,0.,4.8,0.,4.8
1981-08-28 00:04:28.650 ,0,0,1.,4.8,0.,4.8,0.,4.8,0.,4.8
1981-08-28 00:04:33.450 ,0,0,0.,4.8,0.,4.8,1.,4.8,0.,4.8
1981-08-28 00:04:38.250 ,0,0,1.,4.8,0.,4.8,0.,4.8,0.,4.8
1981-08-28 00:04:43.050 ,0,0,0.,4.8,0.,4.8,0.,4.8,0.,4.8
1981-08-28 00:06:23.850 ,0,0,0.,4.8,0.,4.8,0.,4.8,0.,4.8
1981-08-28 00:06:28.650 ,0,0,1.,4.8,0.,4.8,0.,4.8,0.,4.8
1981-08-28 00:06:33.450 ,0,0,1.,4.8,0.,4.8,0.,4.8,0.,4.8
1981-08-28 00:06:38.250 ,0,0,0.,4.8,0.,4.8,0.,4.8,0.,4.8
1981-08-28 00:06:43.050 ,0,0,1.,4.8,0.,4.8,0.,4.8,0.,4.8
1981-08-28 00:06:47.850 ,5,0,0.,4.8,0.,4.8,0.,4.8,0.,4.8
1981-08-28 00:06:52.650 ,5,0,2.,4.8,0.,4.8,0.,4.8,0.,4.8
1981-08-28 00:06:57.450 ,5,0,0.,4.8,0.,4.8,0.,4.8,0.,4.8
1981-08-28 00:07:02.250 ,5,0,0.,4.8,0.,4.8,0.,4.8,0.,4.8
1981-08-28 00:07:07.050 ,5,0,0.,4.8,0.,4.8,0.,4.8,0.,4.8
1981-08-28 00:07:11.850 ,6,0,0.,4.8,0.,4.8,0.,4.8,0.,4.8
1981-08-28 00:07:16.650 ,6,0,0.,4.8,0.,4.8,0.,4.8,0.,4.8
1981-08-28 00:07:21.450 ,6,0,1.,4.8,0.,4.8,0.,4.8,0.,4.8
1981-08-28 00:07:26.250 ,6,0,0.,4.8,0.,4.8,0.,4.8,0.,4.8
1981-08-28 00:07:31.050 ,6,0,0.,4.8,0.,4.8,0.,4.8,0.,4.8
1981-08-28 00:07:35.850 ,7,0,0.,4.8,0.,4.8,0.,4.8,0.,4.8
1981-08-28 00:07:40.650 ,7,0,0.,4.8,0.,4.8,0.,4.8,0.,4.8
1981-08-28 00:07:45.450 ,7,0,0.,4.8,0.,4.8,0.,4.8,0.,4.8
1981-08-28 00:07:50.250 ,7,0,0.,4.8,0.,4.8,0.,4.8,0.,4.8
1981-08-28 00:07:55.050 ,7,0,1.,4.8,0.,4.8,1.,4.8,0.,4.8
1981-08-28 00:07:59.850 ,7,0,1.,4.8,0.,4.8,0.,4.8,0.,4.8
1981-08-28 00:08:04.650 ,7,0,1.,4.8,0.,4.8,0.,4.8,0.,4.8
1981-08-28 00:08:09.450 ,7,0,0.,4.8,0.,4.8,0.,4.8,0.,4.8
1981-08-28 00:08:14.250 ,7,0,0.,4.8,0.,4.8,0.,4.8,0.,4.8
1981-08-28 00:08:19.050 ,7,0,0.,4.8,0.,4.8,0.,4.8,0.,4.8
1981-08-28 00:08:23.850 ,7,0,0.,4.8,0.,4.8,0.,4.8,0.,4.8
1981-08-28 00:08:28.650 ,7,0,1.,4.8,0.,4.8,0.,4.8,0.,4.8
1981-08-28 00:08:33.450 ,7,0,0.,4.8,0.,4.8,0.,4.8,0.,4.8
1981-08-28 00:08:38.250 ,7,0,0.,4.8,0.,4.8,0.,4.8,0.,4.8
1981-08-28 00:08:43.050 ,7,0,0.,4.8,0.,4.8,0.,4.8,0.,4.8
1981-08-28 00:08:47.850 ,6,0,1.,4.8,0.,4.8,0.,4.8,0.,4.8
1981-08-28 00:08:52.650 ,6,0,0.,4.8,0.,4.8,0.,4.8,0.,4.8
1981-08-28 00:08:57.450 ,6,0,0.,4.8,0.,4.8,0.,4.8,0.,4.8
1981-08-28 00:09:02.250 ,6,0,1.,4.8,0.,4.8,0.,4.8,0.,4.8
1981-08-28 00:09:07.050 ,6,0,2.,4.8,0.,4.8,0.,4.8,0.,4.8
1981-08-28 00:09:11.850 ,6,0,0.,4.8,0.,4.8,0.,4.8,0.,4.8
1981-08-28 00:09:16.650 ,6,0,1.,4.8,0.,4.8,0.,4.8,0.,4.8
1981-08-28 00:09:21.450 ,6,0,0.,4.8,0.,4.8,1.,4.8,0.,4.8
1981-08-28 00:09:26.250 ,6,0,0.,4.8,0.,4.8,0.,4.8,0.,4.8
1981-08-28 00:09:31.050 ,6,0,1.,4.8,0.,4.8,0.,4.8,0.,4.8
1981-08-28 00:09:35.850 ,5,0,0.,4.8,0.,4.8,0.,4.8,0.,4.8
1981-08-28 00:09:40.650 ,5,0,0.,4.8,0.,4.8,0.,4.8,0.,4.8
1981-08-28 00:09:45.450 ,5,0,1.,4.8,0.,4.8,0.,4.8,0.,4.8
1981-08-28 00:09:50.250 ,5,0,1.,4.8,0.,4.8,0.,4.8,0.,4.8
1981-08-28 00:09:55.050 ,5,0,0.,4.8,0.,4.8,0.,4.8,0.,4.8
1981-08-28 00:09:59.850 ,5,0,1.,4.8,0.,4.8,1.,4.8,0.,4.8
1981-08-28 00:10:04.650 ,5,0,0.,4.8,0.,4.8,0.,4.8,0.,4.8
1981-08-28 00:10:09.450 ,5,0,0.,4.8,0.,4.8,0.,4.8,0.,4.8
1981-08-28 00:10:14.250 ,5,0,1.,4.8,0.,4.8,0.,4.8,0.,4.8
1981-08-28 00:10:19.050 ,5,0,0.,4.8,0.,4.8,0.,4.8,0.,4.8
1981-08-28 00:10:23.850 ,4,0,0.,4.8,0.,4.8,0.,4.8,0.,4.8
1981-08-28 00:10:28.650 ,4,0,0.,4.8,0.,4.8,0.,4.8,0.,4.8
1981-08-28 00:10:33.450 ,4,0,0.,4.8,0.,4.8,0.,4.8,0.,4.8
1981-08-28 00:10:38.250 ,4,0,1.,4.8,0.,4.8,0.,4.8,0.,4.8
1981-08-28 00:10:43.050 ,4,0,0.,4.8,0.,4.8,0.,4.8,0.,4.8
1981-08-28 00:10:47.850 ,4,0,0.,4.8,0.,4.8,0.,4.8,0.,4.8
1981-08-28 00:10:52.650 ,4,0,0.,4.8,0.,4.8,0.,4.8,0.,4.8
1981-08-28 00:10:57.450 ,4,0,0.,4.8,0.,4.8,0.,4.8,0.,4.8
1981-08-28 00:11:02.250 ,4,0,1.,4.8,0.,4.8,0.,4.8,0.,4.8
1981-08-28 00:11:07.050 ,4,0,0.,4.8,0.,4.8,0.,4.8,0.,4.8
1981-08-28 00:11:11.850 ,3,0,0.,4.8,0.,4.8,0.,4.8,0.,4.8
1981-08-28 00:11:16.650 ,3,0,0.,4.8,0.,4.8,1.,4.8,0.,4.8
1981-08-28 00:11:21.450 ,3,0,0.,4.8,0.,4.8,0.,4.8,0.,4.8
1981-08-28 00:11:26.250 ,3,0,1.,4.8,0.,4.8,0.,4.8,0.,4.8
1981-08-28 00:11:31.050 ,3,0,0.,4.8,0.,4.8,0.,4.8,0.,4.8
1981-08-28 00:11:35.850 ,3,0,1.,4.8,0.,4.8,0.,4.8,0.,4.8
1981-08-28 00:11:40.650 ,3,0,0.,4.8,0.,4.8,0.,4.8,0.,4.8
1981-08-28 00:11:45.450 ,3,0,2.,4.8,0.,4.8,0.,4.8,0.,4.8
1981-08-28 00:11:50.250 ,3,0,0.,4.8,0.,4.8,0.,4.8,0.,4.8
1981-08-28 00:11:55.050 ,3,0,1.,4.8,1.,4.8,0.,4.8,0.,4.8
1981-08-28 00:11:59.850 ,2,0,0.,4.8,0.,4.8,0.,4.8,0.,4.8
1981-08-28 00:12:04.650 ,2,0,0.,4.8,0.,4.8,0.,4.8,0.,4.8
1981-08-28 00:12:09.450 ,2,0,0.,4.8,0.,4.8,0.,4.8,0.,4.8
1981-08-28 00:12:14.250 ,2,0,1.,4.8,0.,4.8,0.,4.8,0.,4.8
1981-08-28 00:12:19.050 ,2,0,0.,4.8,0.,4.8,0.,4.8,0.,4.8
1981-08-28 00:12:23.850 ,2,0,1.,4.8,0.,4.8,0.,4.8,0.,4.8
1981-08-28 00:12:28.650 ,2,0,0.,4.8,0.,4.8,0.,4.8,0.,4.8
1981-08-28 00:12:33.450 ,2,0,0.,4.8,0.,4.8,0.,4.8,0.,4.8
1981-08-28 00:12:38.250 ,2,0,0.,4.8,0.,4.8,0.,4.8,0.,4.8
1981-08-28 00:12:43.050 ,2,0,1.,4.8,0.,4.8,0.,4.8,0.,4.8
1981-08-28 00:12:47.850 ,1,0,0.,4.8,0.,4.8,0.,4.8,0.,4.8
1981-08-28 00:12:52.650 ,1,0,1.,4.8,0.,4.8,0.,4.8,0.,4.8
1981-08-28 00:12:57.450 ,1,0,0.,4.8,0.,4.8,0.,4.8,0.,4.8
1981-08-28 00:13:02.250 ,1,0,0.,4.8,0.,4.8,0.,4.8,0.,4.8
1981-08-28 00:13:07.050 ,1,0,0.,4.8,0.,4.8,0.,4.8,0.,4.8
1981-08-28 00:13:11.850 ,1,0,1.,4.8,0.,4.8,0.,4.8,0.,4.8
1981-08-28 00:13:16.650 ,1,0,0.,4.8,0.,4.8,0.,4.8,0.,4.8
1981-08-28 00:13:21.450 ,1,0,0.,4.8,0.,4.8,0.,4.8,0.,4.8
1981-08-28 00:13:26.250 ,1,0,0.,4.8,0.,4.8,0.,4.8,0.,4.8
1981-08-28 00:13:31.050 ,1,0,1.,4.8,0.,4.8,0.,4.8,0.,4.8
1981-08-28 00:13:35.850 ,0,0,1.,4.8,0.,4.8,1.,4.8,0.,4.8
1981-08-28 00:13:40.650 ,0,0,0.,4.8,0.,4.8,0.,4.8,0.,4.8
1981-08-28 00:13:45.450 ,0,0,1.,4.8,0.,4.8,0.,4.8,0.,4.8
1981-08-28 00:13:50.250 ,0,0,0.,4.8,0.,4.8,0.,4.8,0.,4.8
1981-08-28 00:13:55.050 ,0,0,0.,4.8,0.,4.8,0.,4.8,0.,4.8
1981-08-28 00:13:59.850 ,0,0,0.,4.8,0.,4.8,0.,4.8,0.,4.8
1981-08-28 00:14:04.650 ,0,0,0.,4.8,0.,4.8,0.,4.8,0.,4.8
1981-08-28 00:14:09.450 ,0,0,0.,4.8,0.,4.8,0.,4.8,0.,4.8
1981-08-28 00:14:14.250 ,0,0,0.,4.8,0.,4.8,1.,4.8,0.,4.8
1981-08-28 00:14:19.050 ,0,0,2.,4.8,0.,4.8,0.,4.8,0.,4.8
1981-08-28 00:14:23.850 ,0,0,0.,4.8,0.,4.8,0.,4.8,0.,4.8
1981-08-28 00:14:28.650 ,0,0,2.,4.8,0.,4.8,0.,4.8,0.,4.8
1981-08-28 00:14:33.450 ,0,0,0.,4.8,0.,4.8,0.,4.8,0.,4.8
1981-08-28 00:14:38.250 ,0,0,1.,4.8,0.,4.8,1.,4.8,0.,4.8
1981-08-28 00:14:43.050 ,0,0,1.,4.8,0.,4.8,0.,4.8,0.,4.8
1981-08-28 00:14:47.850 ,0,0,0.,4.8,0.,4.8,1.,4.8,0.,4.8
1981-08-28 00:14:52.650 ,0,0,0.,4.8,0.,4.8,0.,4.8,0.,4.8
1981-08-28 00:14:57.450 ,0,0,0.,4.8,0.,4.8,0.,4.8,0.,4.8
1981-08-28 00:15:02.250 ,0,0,0.,4.8,0.,4.8,0.,4.8,0.,4.8
1981-08-28 00:15:07.050 ,0,0,0.,4.8,0.,4.8,0.,4.8,0.,4.8
1981-08-28 00:15:11.850 ,1,0,0.,4.8,0.,4.8,0.,4.8,0.,4.8
1981-08-28 00:15:16.650 ,1,0,0.,4.8,0.,4.8,0.,4.8,0.,4.8
1981-08-28 00:15:21.450 ,1,0,1.,4.8,0.,4.8,0.,4.8,0.,4.8
1981-08-28 00:15:26.250 ,1,0,0.,4.8,0.,4.8,0.,4.8,0.,4.8
1981-08-28 00:15:31.050 ,1,0,1.,4.8,0.,4.8,0.,4.8,0.,4.8
1981-08-28 00:15:35.850 ,1,0,1.,4.8,0.,4.8,0.,4.8,0.,4.8
1981-08-28 00:15:40.650 ,1,0,0.,4.8,0.,4.8,0.,4.8,0.,4.8
1981-08-28 00:15:45.450 ,1,0,0.,4.8,0.,4.8,0.,4.8,0.,4.8
1981-08-28 00:15:50.250 ,1,0,1.,4.8,0.,4.8,0.,4.8,0.,4.8
1981-08-28 00:15:55.050 ,1,0,1.,4.8,0.,4.8,0.,4.8,0.,4.8
1981-08-28 00:15:59.850 ,2,0,0.,4.8,0.,4.8,0.,4.8,0.,4.8
1981-08-28 00:16:04.650 ,2,0,0.,4.8,0.,4.8,0.,4.8,0.,4.8
1981-08-28 00:16:09.450 ,2,0,0.,4.8,0.,4.8,0.,4.8,0.,4.8
1981-08-28 00:16:14.250 ,2,0,0.,4.8,0.,4.8,0.,4.8,0.,4.8
1981-08-28 00:16:19.050 ,2,0,0.,4.8,0.,4.8,0.,4.8,0.,4.8
1981-08-28 00:16:23.850 ,2,0,0.,4.8,0.,4.8,1.,4.8,0.,4.8
1981-08-28 00:16:28.650 ,2,0,1.,4.8,0.,4.8,0.,4.8,0.,4.8
1981-08-28 00:16:33.450 ,2,0,1.,4.8,0.,4.8,0.,4.8,0.,4.8
1981-08-28 00:16:38.250 ,2,0,0.,4.8,0.,4.8,0.,4.8,0.,4.8
1981-08-28 00:16:43.050 ,2,0,0.,4.8,0.,4.8,0.,4.8,0.,4.8
1981-08-28 00:16:47.850 ,3,0,2.,4.8,0.,4.8,0.,4.8,0.,4.8
1981-08-28 00:16:52.650 ,3,0,1.,4.8,0.,4.8,0.,4.8,0.,4.8
1981-08-28 00:16:57.450 ,3,0,0.,4.8,0.,4.8,0.,4.8,0.,4.8
1981-08-28 00:17:02.250 ,3,0,2.,4.8,0.,4.8,0.,4.8,0.,4.8
1981-08-28 00:17:07.050 ,3,0,1.,4.8,0.,4.8,0.,4.8,0.,4.8
1981-08-28 00:17:11.850 ,3,0,0.,4.8,0.,4.8,0.,4.8,0.,4.8
1981-08-28 00:17:16.650 ,3,0,0.,4.8,0.,4.8,0.,4.8,0.,4.8
1981-08-28 00:17:21.450 ,3,0,0.,4.8,0.,4.8,0.,4.8,0.,4.8
1981-08-28 00:17:26.250 ,3,0,0.,4.8,0.,4.8,0.,4.8,0.,4.8
1981-08-28 00:17:31.050 ,3,0,1.,4.8,0.,4.8,0.,4.8,0.,4.8
1981-08-28 00:17:35.850 ,4,0,1.,4.8,0.,4.8,0.,4.8,0.,4.8
1981-08-28 00:17:40.650 ,4,0,0.,4.8,0.,4.8,1.,4.8,0.,4.8
1981-08-28 00:17:45.450 ,4,0,1.,4.8,0.,4.8,0.,4.8,0.,4.8
1981-08-28 00:17:50.250 ,4,0,0.,4.8,0.,4.8,0.,4.8,0.,4.8
1981-08-28 00:17:55.050 ,4,0,0.,4.8,0.,4.8,0.,4.8,0.,4.8
1981-08-28 00:17:59.850 ,4,0,2.,4.8,0.,4.8,0.,4.8,0.,4.8
1981-08-28 00:18:04.650 ,4,0,0.,4.8,0.,4.8,0.,4.8,0.,4.8
1981-08-28 00:18:09.450 ,4,0,0.,4.8,0.,4.8,0.,4.8,0.,4.8
1981-08-28 00:18:14.250 ,4,0,2.,4.8,0.,4.8,0.,4.8,0.,4.8
1981-08-28 00:18:19.050 ,4,0,2.,4.8,0.,4.8,0.,4.8,0.,4.8
1981-08-28 00:18:23.850 ,5,0,1.,4.8,0.,4.8,0.,4.8,0.,4.8
1981-08-28 00:18:28.650 ,5,0,0.,4.8,0.,4.8,0.,4.8,0.,4.8
1981-08-28 00:18:33.450 ,5,0,0.,4.8,0.,4.8,0.,4.8,0.,4.8
1981-08-28 00:18:38.250 ,5,0,0.,4.8,0.,4.8,0.,4.8,0.,4.8
1981-08-28 00:18:43.050 ,5,0,1.,4.8,0.,4.8,0.,4.8,1.,4.8
1981-08-28 00:18:47.850 ,5,0,0.,4.8,0.,4.8,0.,4.8,0.,4.8
1981-08-28 00:18:52.650 ,5,0,0.,4.8,0.,4.8,0.,4.8,0.,4.8
1981-08-28 00:18:57.450 ,5,0,0.,4.8,0.,4.8,0.,4.8,0.,4.8
1981-08-28 00:19:02.250 ,5,0,0.,4.8,0.,4.8,0.,4.8,0.,4.8
1981-08-28 00:19:07.050 ,5,0,0.,4.8,0.,4.8,0.,4.8,0.,4.8
1981-08-28 00:19:11.850 ,6,0,0.,4.8,0.,4.8,0.,4.8,0.,4.8
1981-08-28 00:19:16.650 ,6,0,0.,4.8,0.,4.8,0.,4.8,0.,4.8
1981-08-28 00:19:21.450 ,6,0,0.,4.8,0.,4.8,0.,4.8,0.,4.8
1981-08-28 00:19:26.250 ,6,0,0.,4.8,0.,4.8,0.,4.8,0.,4.8
1981-08-28 00:19:31.050 ,6,0,1.,4.8,0.,4.8,0.,4.8,0.,4.8
1981-08-28 00:19:35.850 ,6,0,1.,4.8,0.,4.8,0.,4.8,0.,4.8
1981-08-28 00:19:40.650 ,6,0,0.,4.8,0.,4.8,0.,4.8,0.,4.8
1981-08-28 00:19:45.450 ,6,0,0.,4.8,0.,4.8,0.,4.8,0.,4.8
1981-08-28 00:19:50.250 ,6,0,0.,4.8,0.,4.8,1.,4.8,0.,4.8
1981-08-28 00:19:55.050 ,6,0,0.,4.8,0.,4.8,0.,4.8,0.,4.8
1981-08-28 00:19:59.850 ,7,0,0.,4.8,0.,4.8,0.,4.8,0.,4.8
1981-08-28 00:20:04.650 ,7,0,1.,4.8,0.,4.8,0.,4.8,0.,4.8
1981-08-28 00:20:09.450 ,7,0,0.,4.8,1.,4.8,0.,4.8,0.,4.8
1981-08-28 00:20:14.250 ,7,0,0.,4.8,0.,4.8,0.,4.8,0.,4.8
1981-08-28 00:20:19.050 ,7,0,1.,4.8,0.,4.8,0.,4.8,0.,4.8
1981-08-28 00:20:23.850 ,7,0,0.,4.8,0.,4.8,0.,4.8,0.,4.8
1981-08-28 00:20:28.650 ,7,0,0.,4.8,0.,4.8,0.,4.8,0.,4.8
1981-08-28 00:20:33.450 ,7,0,1.,4.8,0.,4.8,0.,4.8,0.,4.8
1981-08-28 00:20:38.250 ,7,0,0.,4.8,0.,4.8,1.,4.8,0.,4.8
1981-08-28 00:20:43.050 ,7,0,0.,4.8,0.,4.8,0.,4.8,0.,4.8
1981-08-28 00:20:47.850 ,7,0,1.,4.8,0.,4.8,0.,4.8,0.,4.8
1981-08-28 00:20:52.650 ,7,0,0.,4.8,0.,4.8,0.,4.8,0.,4.8
1981-08-28 00:20:57.450 ,7,0,0.,4.8,0.,4.8,1.,4.8,0.,4.8
1981-08-28 00:21:02.250 ,7,0,0.,4.8,0.,4.8,0.,4.8,0.,4.8
1981-08-28 00:21:07.050 ,7,0,0.,4.8,0.,4.8,0.,4.8,0.,4.8
1981-08-28 00:21:11.850 ,6,0,0.,4.8,0.,4.8,0.,4.8,0.,4.8
1981-08-28 00:21:16.650 ,6,0,1.,4.8,0.,4.8,0.,4.8,0.,4.8
1981-08-28 00:21:21.450 ,6,0,0.,4.8,0.,4.8,0.,4.8,0.,4.8
1981-08-28 00:21:26.250 ,6,0,1.,4.8,0.,4.8,0.,4.8,0.,4.8
1981-08-28 00:21:31.050 ,6,0,0.,4.8,0.,4.8,0.,4.8,0.,4.8
1981-08-28 00:21:35.850 ,5,0,0.,4.8,0.,4.8,0.,4.8,0.,4.8
1981-08-28 00:21:40.650 ,5,0,0.,4.8,0.,4.8,0.,4.8,0.,4.8
1981-08-28 00:21:45.450 ,5,0,1.,4.8,0.,4.8,0.,4.8,0.,4.8
1981-08-28 00:21:50.250 ,5,0,0.,4.8,0.,4.8,0.,4.8,0.,4.8
1981-08-28 00:21:55.050 ,5,0,0.,4.8,1.,4.8,1.,4.8,0.,4.8
1981-08-28 00:21:59.850 ,4,0,0.,4.8,0.,4.8,0.,4.8,0.,4.8
1981-08-28 00:22:04.650 ,4,0,0.,4.8,0.,4.8,0.,4.8,0.,4.8
1981-08-28 00:22:09.450 ,4,0,1.,4.8,0.,4.8,0.,4.8,0.,4.8
1981-08-28 00:22:14.250 ,4,0,0.,4.8,0.,4.8,0.,4.8,0.,4.8
1981-08-28 00:22:19.050 ,4,0,1.,4.8,0.,4.8,0.,4.8,0.,4.8
1981-08-28 00:22:23.850 ,3,0,1.,4.8,0.,4.8,0.,4.8,0.,4.8
1981-08-28 00:22:28.650 ,3,0,1.,4.8,0.,4.8,0.,4.8,0.,4.8
1981-08-28 00:22:33.450 ,3,0,0.,4.8,0.,4.8,0.,4.8,0.,4.8
1981-08-28 00:22:38.250 ,3,0,1.,4.8,0.,4.8,0.,4.8,0.,4.8
1981-08-28 00:22:43.050 ,3,0,0.,4.8,0.,4.8,0.,4.8,0.,4.8
1981-08-28 00:22:47.850 ,2,0,0.,4.8,0.,4.8,0.,4.8,0.,4.8
1981-08-28 00:22:52.650 ,2,0,0.,4.8,0.,4.8,0.,4.8,0.,4.8
1981-08-28 00:22:57.450 ,2,0,1.,4.8,0.,4.8,0.,4.8,0.,4.8
1981-08-28 00:23:02.250 ,2,0,0.,4.8,0.,4.8,0.,4.8,0.,4.8
1981-08-28 00:23:07.050 ,2,0,0.,4.8,0.,4.8,0.,4.8,0.,4.8
1981-08-28 00:23:11.850 ,1,0,0.,4.8,0.,4.8,0.,4.8,0.,4.8
1981-08-28 00:23:16.650 ,1,0,0.,4.8,0.,4.8,0.,4.8,0.,4.8
1981-08-28 00:23:21.450 ,1,0,0.,4.8,0.,4.8,0.,4.8,0.,4.8
1981-08-28 00:23:26.250 ,1,0,0.,4.8,0.,4.8,0.,4.8,0.,4.8
1981-08-28 00:23:31.050 ,1,0,1.,4.8,0.,4.8,0.,4.8,0.,4.8
1981-08-28 00:23:35.850 ,0,0,0.,4.8,0.,4.8,0.,4.8,0.,4.8
1981-08-28 00:23:40.650 ,0,0,0.,4.8,0.,4.8,0.,4.8,0.,4.8
1981-08-28 00:23:45.450 ,0,0,0.,4.8,0.,4.8,0.,4.8,0.,4.8
1981-08-28 00:23:50.250 ,0,0,0.,4.8,0.,4.8,0.,4.8,0.,4.8
1981-08-28 00:23:55.050 ,0,0,0.,4.8,0.,4.8,0.,4.8,0.,4.8
1981-08-28 00:23:59.850 ,0,0,1.,4.8,0.,4.8,0.,4.8,0.,4.8
1981-08-28 00:24:04.650 ,0,0,0.,4.8,0.,4.8,1.,4.8,0.,4.8
1981-08-28 00:24:09.450 ,0,0,1.,4.8,0.,4.8,0.,4.8,0.,4.8
1981-08-28 00:24:14.250 ,0,0,0.,4.8,1.,4.8,0.,4.8,0.,4.8
1981-08-28 00:24:19.050 ,0,0,1.,4.8,0.,4.8,0.,4.8,0.,4.8
1981-08-28 00:24:23.850 ,1,0,1.,4.8,0.,4.8,0.,4.8,0.,4.8
1981-08-28 00:24:28.650 ,1,0,0.,4.8,0.,4.8,0.,4.8,0.,4.8
1981-08-28 00:24:33.450 ,1,0,1.,4.8,0.,4.8,0.,4.8,0.,4.8
1981-08-28 00:24:38.250 ,1,0,0.,4.8,0.,4.8,0.,4.8,0.,4.8
1981-08-28 00:24:43.050 ,1,0,1.,4.8,0.,4.8,0.,4.8,0.,4.8
1981-08-28 00:24:47.850 ,2,0,0.,4.8,1.,4.8,0.,4.8,0.,4.8
1981-08-28 00:24:52.650 ,2,0,0.,4.8,0.,4.8,0.,4.8,0.,4.8
1981-08-28 00:24:57.450 ,2,0,0.,4.8,0.,4.8,0.,4.8,0.,4.8
1981-08-28 00:25:02.250 ,2,0,0.,4.8,0.,4.8,0.,4.8,0.,4.8
1981-08-28 00:25:07.050 ,2,0,0.,4.8,0.,4.8,0.,4.8,0.,4.8
1981-08-28 00:25:11.850 ,3,0,0.,4.8,0.,4.8,0.,4.8,0.,4.8
1981-08-28 00:25:16.650 ,3,0,0.,4.8,1.,4.8,0.,4.8,0.,4.8
1981-08-28 00:25:21.450 ,3,0,0.,4.8,0.,4.8,0.,4.8,0.,4.8
1981-08-28 00:25:26.250 ,3,0,0.,4.8,0.,4.8,0.,4.8,0.,4.8
1981-08-28 00:25:31.050 ,3,0,0.,4.8,0.,4.8,0.,4.8,0.,4.8
1981-08-28 00:25:35.850 ,4,0,2.,4.8,0.,4.8,0.,4.8,0.,4.8
1981-08-28 00:25:40.650 ,4,0,1.,4.8,0.,4.8,0.,4.8,0.,4.8
1981-08-28 00:25:45.450 ,4,0,0.,4.8,0.,4.8,0.,4.8,0.,4.8
1981-08-28 00:25:50.250 ,4,0,0.,4.8,0.,4.8,0.,4.8,0.,4.8
1981-08-28 00:25:55.050 ,4,0,0.,4.8,0.,4.8,0.,4.8,0.,4.8
1981-08-28 00:25:59.850 ,5,0,1.,4.8,0.,4.8,0.,4.8,0.,4.8
1981-08-28 00:26:04.650 ,5,0,0.,4.8,0.,4.8,0.,4.8,0.,4.8
1981-08-28 00:26:09.450 ,5,0,0.,4.8,0.,4.8,0.,4.8,0.,4.8
1981-08-28 00:26:14.250 ,5,0,0.,4.8,0.,4.8,0.,4.8,0.,4.8
1981-08-28 00:26:19.050 ,5,0,0.,4.8,0.,4.8,0.,4.8,0.,4.8
1981-08-28 00:26:23.850 ,6,0,0.,4.8,0.,4.8,0.,4.8,0.,4.8
1981-08-28 00:26:28.650 ,6,0,1.,4.8,0.,4.8,0.,4.8,0.,4.8
1981-08-28 00:26:33.450 ,6,0,1.,4.8,0.,4.8,0.,4.8,0.,4.8
1981-08-28 00:26:38.250 ,6,0,1.,4.8,0.,4.8,0.,4.8,0.,4.8
1981-08-28 00:26:43.050 ,6,0,0.,4.8,0.,4.8,1.,4.8,0.,4.8
1981-08-28 00:26:47.850 ,7,0,0.,4.8,0.,4.8,0.,4.8,0.,4.8
1981-08-28 00:26:52.650 ,7,0,0.,4.8,0.,4.8,0.,4.8,0.,4.8
1981-08-28 00:26:57.450 ,7,0,0.,4.8,0.,4.8,0.,4.8,0.,4.8
1981-08-28 00:27:02.250 ,7,0,0.,4.8,0.,4.8,0.,4.8,0.,4.8
1981-08-28 00:27:07.050 ,7,0,1.,4.8,0.,4.8,0.,4.8,0.,4.8
1981-08-28 00:27:11.850 ,7,0,0.,4.8,0.,4.8,0.,4.8,0.,4.8
1981-08-28 00:27:16.650 ,7,0,0.,4.8,0.,4.8,0.,4.8,0.,4.8
1981-08-28 00:27:21.450 ,7,0,2.,4.8,0.,4.8,0.,4.8,0.,4.8
1981-08-28 00:27:26.250 ,7,0,0.,4.8,0.,4.8,0.,4.8,0.,4.8
1981-08-28 00:27:31.050 ,7,0,0.,4.8,0.,4.8,0.,4.8,0.,4.8
1981-08-28 00:27:35.850 ,7,0,0.,4.8,0.,4.8,0.,4.8,0.,4.8
1981-08-28 00:27:40.650 ,7,0,1.,4.8,0.,4.8,0.,4.8,0.,4.8
1981-08-28 00:27:45.450 ,7,0,1.,4.8,0.,4.8,0.,4.8,0.,4.8
1981-08-28 00:27:50.250 ,7,0,1.,4.8,0.,4.8,0.,4.8,0.,4.8
1981-08-28 00:27:55.050 ,7,0,0.,4.8,0.,4.8,1.,4.8,0.,4.8
1981-08-28 00:27:59.850 ,6,0,0.,4.8,0.,4.8,1.,4.8,0.,4.8
1981-08-28 00:28:04.650 ,6,0,0.,4.8,0.,4.8,0.,4.8,0.,4.8
1981-08-28 00:28:09.450 ,6,0,0.,4.8,0.,4.8,0.,4.8,0.,4.8
1981-08-28 00:28:14.250 ,6,0,0.,4.8,0.,4.8,0.,4.8,0.,4.8
1981-08-28 00:28:19.050 ,6,0,0.,4.8,0.,4.8,0.,4.8,0.,4.8
1981-08-28 00:28:23.850 ,6,0,0.,4.8,0.,4.8,0.,4.8,0.,4.8
1981-08-28 00:28:28.650 ,6,0,0.,4.8,0.,4.8,0.,4.8,0.,4.8
1981-08-28 00:28:33.450 ,6,0,1.,4.8,0.,4.8,0.,4.8,0.,4.8
1981-08-28 00:28:38.250 ,6,0,0.,4.8,0.,4.8,1.,4.8,0.,4.8
1981-08-28 00:28:43.050 ,6,0,1.,4.8,0.,4.8,0.,4.8,0.,4.8
1981-08-28 00:28:47.850 ,5,0,1.,4.8,0.,4.8,0.,4.8,0.,4.8
1981-08-28 00:28:52.650 ,5,0,0.,4.8,0.,4.8,0.,4.8,0.,4.8
1981-08-28 00:28:57.450 ,5,0,0.,4.8,0.,4.8,0.,4.8,0.,4.8
1981-08-28 00:29:02.250 ,5,0,0.,4.8,0.,4.8,0.,4.8,0.,4.8
1981-08-28 00:29:07.050 ,5,0,0.,4.8,0.,4.8,0.,4.8,0.,4.8
1981-08-28 00:29:11.850 ,5,0,0.,4.8,0.,4.8,0.,4.8,0.,4.8
1981-08-28 00:29:16.650 ,5,0,0.,4.8,0.,4.8,0.,4.8,0.,4.8
1981-08-28 00:29:21.450 ,5,0,1.,4.8,1.,4.8,0.,4.8,0.,4.8
1981-08-28 00:29:26.250 ,5,0,1.,4.8,0.,4.8,0.,4.8,0.,4.8
1981-08-28 00:29:31.050 ,5,0,0.,4.8,0.,4.8,0.,4.8,0.,4.8
1981-08-28 00:29:35.850 ,4,0,0.,4.8,0.,4.8,0.,4.8,0.,4.8
1981-08-28 00:29:40.650 ,4,0,1.,4.8,0.,4.8,1.,4.8,0.,4.8
1981-08-28 00:29:45.450 ,4,0,1.,4.8,0.,4.8,0.,4.8,0.,4.8
1981-08-28 00:29:50.250 ,4,0,0.,4.8,0.,4.8,0.,4.8,0.,4.8
1981-08-28 00:29:55.050 ,4,0,0.,4.8,0.,4.8,0.,4.8,0.,4.8
1981-08-28 00:29:59.850 ,4,0,1.,4.8,0.,4.8,0.,4.8,0.,4.8
1981-08-28 00:30:04.650 ,4,0,0.,4.8,0.,4.8,0.,4.8,0.,4.8
1981-08-28 00:30:09.450 ,4,0,0.,4.8,0.,4.8,0.,4.8,0.,4.8
1981-08-28 00:30:14.250 ,4,0,1.,4.8,0.,4.8,1.,4.8,0.,4.8
1981-08-28 00:30:19.050 ,4,0,0.,4.8,0.,4.8,0.,4.8,0.,4.8
1981-08-28 00:30:23.850 ,3,0,0.,4.8,0.,4.8,0.,4.8,0.,4.8
1981-08-28 00:30:28.650 ,3,0,0.,4.8,0.,4.8,1.,4.8,0.,4.8
1981-08-28 00:30:33.450 ,3,0,0.,4.8,0.,4.8,0.,4.8,0.,4.8
1981-08-28 00:30:38.250 ,3,0,0.,4.8,0.,4.8,0.,4.8,0.,4.8
1981-08-28 00:30:43.050 ,3,0,0.,4.8,0.,4.8,0.,4.8,0.,4.8
1981-08-28 00:30:47.850 ,3,0,0.,4.8,0.,4.8,0.,4.8,0.,4.8
1981-08-28 00:30:52.650 ,3,0,0.,4.8,0.,4.8,0.,4.8,0.,4.8
1981-08-28 00:30:57.450 ,3,0,0.,4.8,0.,4.8,0.,4.8,0.,4.8
1981-08-28 00:31:02.250 ,3,0,1.,4.8,0.,4.8,0.,4.8,0.,4.8
1981-08-28 00:31:07.050 ,3,0,1.,4.8,0.,4.8,0.,4.8,0.,4.8
1981-08-28 00:31:11.850 ,2,0,0.,4.8,0.,4.8,0.,4.8,0.,4.8
1981-08-28 00:31:16.650 ,2,0,0.,4.8,0.,4.8,0.,4.8,0.,4.8
1981-08-28 00:31:21.450 ,2,0,0.,4.8,0.,4.8,0.,4.8,0.,4.8
1981-08-28 00:31:26.250 ,2,0,1.,4.8,0.,4.8,0.,4.8,0.,4.8
1981-08-28 00:31:31.050 ,2,0,0.,4.8,0.,4.8,0.,4.8,0.,4.8
1981-08-28 00:31:35.850 ,2,0,0.,4.8,0.,4.8,0.,4.8,0.,4.8
1981-08-28 00:31:40.650 ,2,0,0.,4.8,0.,4.8,0.,4.8,0.,4.8
1981-08-28 00:31:45.450 ,2,0,0.,4.8,0.,4.8,0.,4.8,0.,4.8
1981-08-28 00:31:50.250 ,2,0,0.,4.8,0.,4.8,0.,4.8,0.,4.8
1981-08-28 00:31:55.050 ,2,0,1.,4.8,0.,4.8,0.,4.8,0.,4.8
1981-08-28 00:31:59.850 ,1,0,1.,4.8,0.,4.8,0.,4.8,0.,4.8
1981-08-28 00:32:04.650 ,1,0,0.,4.8,0.,4.8,0.,4.8,0.,4.8
1981-08-28 00:32:09.450 ,1,0,0.,4.8,0.,4.8,0.,4.8,0.,4.8
1981-08-28 00:32:14.250 ,1,0,2.,4.8,0.,4.8,0.,4.8,0.,4.8
1981-08-28 00:32:19.050 ,1,0,0.,4.8,0.,4.8,0.,4.8,0.,4.8
1981-08-28 00:32:23.850 ,1,0,1.,4.8,0.,4.8,0.,4.8,0.,4.8
1981-08-28 00:32:28.650 ,1,0,0.,4.8,0.,4.8,0.,4.8,0.,4.8
1981-08-28 00:32:33.450 ,1,0,0.,4.8,0.,4.8,1.,4.8,0.,4.8
1981-08-28 00:32:38.250 ,1,0,1.,4.8,0.,4.8,0.,4.8,0.,4.8
1981-08-28 00:32:43.050 ,1,0,0.,4.8,0.,4.8,0.,4.8,0.,4.8
1981-08-28 00:32:47.850 ,0,0,0.,4.8,0.,4.8,0.,4.8,0.,4.8
1981-08-28 00:32:52.650 ,0,0,0.,4.8,0.,4.8,0.,4.8,0.,4.8
1981-08-28 00:32:57.450 ,0,0,1.,4.8,0.,4.8,0.,4.8,0.,4.8
1981-08-28 00:33:02.250 ,0,0,0.,4.8,0.,4.8,0.,4.8,0.,4.8
1981-08-28 00:33:07.050 ,0,0,0.,4.8,0.,4.8,0.,4.8,0.,4.8
1981-08-28 00:33:11.850 ,0,0,0.,4.8,0.,4.8,0.,4.8,0.,4.8
1981-08-28 00:33:16.650 ,0,0,1.,4.8,0.,4.8,0.,4.8,0.,4.8
1981-08-28 00:33:21.450 ,0,0,0.,4.8,0.,4.8,1.,4.8,0.,4.8
1981-08-28 00:33:26.250 ,0,0,0.,4.8,0.,4.8,0.,4.8,0.,4.8
1981-08-28 00:33:31.050 ,0,0,0.,4.8,0.,4.8,0.,4.8,0.,4.8
1981-08-28 00:33:35.850 ,0,0,0.,4.8,0.,4.8,0.,4.8,0.,4.8
1981-08-28 00:33:40.650 ,0,0,0.,4.8,0.,4.8,0.,4.8,0.,4.8
1981-08-28 00:33:45.450 ,0,0,0.,4.8,0.,4.8,0.,4.8,0.,4.8
1981-08-28 00:33:50.250 ,0,0,0.,4.8,0.,4.8,0.,4.8,0.,4.8
1981-08-28 00:33:55.050 ,0,0,0.,4.8,0.,4.8,0.,4.8,0.,4.8
1981-08-28 00:33:59.850 ,0,0,0.,4.8,0.,4.8,0.,4.8,0.,4.8
1981-08-28 00:34:04.650 ,0,0,0.,4.8,0.,4.8,0.,4.8,0.,4.8
1981-08-28 00:34:09.450 ,0,0,1.,4.8,0.,4.8,0.,4.8,0.,4.8
1981-08-28 00:34:14.250 ,0,0,1.,4.8,0.,4.8,0.,4.8,0.,4.8
1981-08-28 00:34:19.050 ,0,0,1.,4.8,0.,4.8,0.,4.8,0.,4.8
1981-08-28 00:34:23.850 ,1,0,0.,4.8,0.,4.8,0.,4.8,0.,4.8
1981-08-28 00:34:28.650 ,1,0,1.,4.8,0.,4.8,0.,4.8,0.,4.8
1981-08-28 00:34:33.450 ,1,0,0.,4.8,0.,4.8,0.,4.8,0.,4.8
1981-08-28 00:34:38.250 ,1,0,0.,4.8,0.,4.8,0.,4.8,0.,4.8
1981-08-28 00:34:43.050 ,1,0,0.,4.8,0.,4.8,0.,4.8,0.,4.8
1981-08-28 00:34:47.850 ,1,0,0.,4.8,0.,4.8,0.,4.8,0.,4.8
1981-08-28 00:34:52.650 ,1,0,2.,4.8,0.,4.8,0.,4.8,0.,4.8